Time,TemperatureF,DewpointF,PressureIn,WindDirection,WindDirectionDegrees,WindSpeedMPH,WindSpeedGustMPH,Humidity,HourlyPrecipIn,Conditions,Clouds,dailyrainin,SoftwareType,DateUTC
2013-06-24 00:00:00,73.7,71.6,30.15,SE,142,0.0,1.0,93,0.00,,---,0.00,VWS V14.01,2013-06-24 04:00:00,
2013-06-24 00:01:00,73.7,71.6,30.15,SE,142,0.0,1.0,93,0.00,,---,0.01,VWS V14.01,2013-06-24 04:01:00,
2013-06-24 00:02:00,73.7,71.6,30.15,SE,142,0.0,0.0,93,0.00,,---,0.00,VWS V14.01,2013-06-24 04:02:00,
2013-06-24 00:07:00,73.6,71.5,30.16,South,191,1.0,1.0,93,0.00,,---,0.00,VWS V14.01,2013-06-24 04:07:00,
2013-06-24 00:12:00,73.6,71.5,30.15,SSW,193,0.0,1.0,93,0.00,,---,0.00,VWS V14.01,2013-06-24 04:12:00,
2013-06-24 00:17:00,73.6,71.5,30.15,SSW,193,0.0,1.0,93,0.00,,---,0.00,VWS V14.01,2013-06-24 04:17:00,
2013-06-24 00:22:00,73.6,71.8,30.15,SSW,193,0.0,1.0,94,0.00,,---,0.00,VWS V14.01,2013-06-24 04:22:00,
2013-06-24 00:28:00,73.6,71.8,30.15,SSW,193,0.0,1.0,94,0.00,,---,0.00,VWS V14.01,2013-06-24 04:28:00,
2013-06-24 00:30:00,73.5,71.7,30.15,SSW,193,1.0,1.0,94,0.00,,---,0.00,VWS V14.01,2013-06-24 04:30:00,
2013-06-24 00:33:00,73.5,71.7,30.15,SSW,193,0.0,1.0,94,0.00,,---,0.00,VWS V14.01,2013-06-24 04:33:00,
2013-06-24 00:38:00,73.5,71.7,30.15,SSW,194,0.0,1.0,94,0.00,,---,0.00,VWS V14.01,2013-06-24 04:38:00,
2013-06-24 00:43:00,73.4,71.6,30.15,SSW,194,0.0,1.0,94,0.00,,---,0.00,VWS V14.01,2013-06-24 04:43:00,
2013-06-24 00:48:00,73.3,71.5,30.16,SSW,195,0.0,1.0,94,0.00,,---,0.00,VWS V14.01,2013-06-24 04:48:00,
2013-06-24 00:53:00,73.2,71.4,30.16,SSW,211,0.0,1.0,94,0.00,,---,0.00,VWS V14.01,2013-06-24 04:53:00,
2013-06-24 00:58:00,73.2,71.4,30.15,SW,218,0.0,1.0,94,0.00,,---,0.00,VWS V14.01,2013-06-24 04:58:00,
2013-06-24 01:00:00,73.1,71.3,30.15,SW,218,0.0,1.0,94,0.00,,---,0.00,VWS V14.01,2013-06-24 05:00:00,
2013-06-24 01:03:00,73.1,71.3,30.16,SW,218,1.0,1.0,94,0.00,,---,0.00,VWS V14.01,2013-06-24 05:03:00,
2013-06-24 01:08:00,73.1,71.3,30.16,WSW,254,0.0,1.0,94,0.00,,---,0.00,VWS V14.01,2013-06-24 05:08:00,
2013-06-24 01:14:00,73.1,71.3,30.16,WSW,257,1.0,1.0,94,0.00,,---,0.00,VWS V14.01,2013-06-24 05:14:00,
2013-06-24 01:19:00,73.0,70.9,30.16,West,265,1.0,2.0,93,0.00,,---,0.00,VWS V14.01,2013-06-24 05:19:00,
2013-06-24 01:24:00,73.0,70.9,30.16,West,266,0.0,2.0,93,0.00,,---,0.00,VWS V14.01,2013-06-24 05:24:00,
2013-06-24 01:29:00,73.0,70.9,30.16,West,266,0.0,2.0,93,0.00,,---,0.00,VWS V14.01,2013-06-24 05:29:00,
2013-06-24 01:30:00,73.0,70.9,30.16,West,266,1.0,2.0,93,0.00,,---,0.00,VWS V14.01,2013-06-24 05:30:00,
2013-06-24 01:34:00,72.9,71.1,30.16,West,266,0.0,1.0,94,0.00,,---,0.00,VWS V14.01,2013-06-24 05:34:00,
2013-06-24 01:39:00,72.8,71.0,30.16,West,266,1.0,1.0,94,0.00,,---,0.00,VWS V14.01,2013-06-24 05:39:00,
2013-06-24 01:44:00,72.8,71.0,30.16,West,266,1.0,1.0,94,0.00,,---,0.00,VWS V14.01,2013-06-24 05:44:00,
2013-06-24 01:49:00,72.8,71.0,30.16,West,266,0.0,1.0,94,0.00,,---,0.00,VWS V14.01,2013-06-24 05:49:00,
2013-06-24 01:54:00,72.7,70.9,30.16,West,265,0.0,1.0,94,0.00,,---,0.00,VWS V14.01,2013-06-24 05:54:00,
2013-06-24 01:59:00,72.6,70.8,30.16,West,266,0.0,1.0,94,0.00,,---,0.00,VWS V14.01,2013-06-24 05:59:00,
2013-06-24 02:05:00,72.6,70.8,30.16,WSW,244,0.0,1.0,94,0.00,,---,0.00,VWS V14.01,2013-06-24 06:05:00,
2013-06-24 02:10:00,72.6,70.8,30.16,WSW,245,0.0,1.0,94,0.00,,---,0.00,VWS V14.01,2013-06-24 06:10:00,
2013-06-24 02:15:00,72.5,70.7,30.16,WSW,245,0.0,1.0,94,0.00,,---,0.00,VWS V14.01,2013-06-24 06:15:00,
2013-06-24 02:20:00,72.4,70.6,30.16,WSW,244,0.0,1.0,94,0.00,,---,0.00,VWS V14.01,2013-06-24 06:20:00,
2013-06-24 02:25:00,72.3,70.5,30.16,WSW,244,0.0,1.0,94,0.00,,---,0.00,VWS V14.01,2013-06-24 06:25:00,
2013-06-24 02:30:00,72.3,70.8,30.16,WSW,244,0.0,1.0,95,0.00,,---,0.00,VWS V14.01,2013-06-24 06:30:00,
2013-06-24 02:35:00,72.2,70.7,30.16,WSW,245,0.0,0.0,95,0.00,,---,0.00,VWS V14.01,2013-06-24 06:35:00,
2013-06-24 02:41:00,72.2,70.7,30.16,WSW,245,0.0,0.0,95,0.00,,---,0.00,VWS V14.01,2013-06-24 06:41:00,
2013-06-24 02:46:00,72.2,70.7,30.16,WSW,244,0.0,1.0,95,0.00,,---,0.00,VWS V14.01,2013-06-24 06:46:00,
2013-06-24 02:51:00,72.2,70.7,30.16,WSW,244,0.0,1.0,95,0.00,,---,0.00,VWS V14.01,2013-06-24 06:51:00,
2013-06-24 02:56:00,72.2,70.7,30.16,WSW,245,0.0,1.0,95,0.00,,---,0.00,VWS V14.01,2013-06-24 06:56:00,
2013-06-24 03:00:00,72.2,70.7,30.16,WSW,244,0.0,1.0,95,0.00,,---,0.00,VWS V14.01,2013-06-24 07:00:00,
2013-06-24 03:01:00,72.2,70.7,30.16,WSW,244,0.0,1.0,95,0.00,,---,0.00,VWS V14.01,2013-06-24 07:01:00,
2013-06-24 03:06:00,72.2,70.7,30.16,WSW,245,0.0,0.0,95,0.00,,---,0.00,VWS V14.01,2013-06-24 07:06:00,
2013-06-24 03:11:00,72.3,71.1,30.16,WSW,245,0.0,1.0,96,0.00,,---,0.00,VWS V14.01,2013-06-24 07:11:00,
2013-06-24 03:16:00,72.3,70.8,30.16,WSW,245,0.0,1.0,95,0.00,,---,0.00,VWS V14.01,2013-06-24 07:16:00,
2013-06-24 03:21:00,72.3,71.1,30.16,WSW,245,0.0,1.0,96,0.00,,---,0.00,VWS V14.01,2013-06-24 07:21:00,
2013-06-24 03:26:00,72.3,71.1,30.16,WSW,245,0.0,1.0,96,0.00,,---,0.00,VWS V14.01,2013-06-24 07:26:00,
2013-06-24 03:30:00,72.4,71.2,30.16,WSW,245,0.0,1.0,96,0.00,,---,0.00,VWS V14.01,2013-06-24 07:30:00,
2013-06-24 03:31:00,72.4,71.2,30.16,WSW,244,0.0,0.0,96,0.00,,---,0.00,VWS V14.01,2013-06-24 07:31:00,
2013-06-24 03:36:00,72.4,71.2,30.16,WSW,245,0.0,0.0,96,0.00,,---,0.00,VWS V14.01,2013-06-24 07:36:00,
2013-06-24 03:42:00,72.4,71.2,30.16,WSW,245,0.0,0.0,96,0.00,,---,0.00,VWS V14.01,2013-06-24 07:42:00,
2013-06-24 03:47:00,72.5,71.3,30.16,WSW,245,0.0,0.0,96,0.00,,---,0.00,VWS V14.01,2013-06-24 07:47:00,
2013-06-24 03:52:00,72.5,71.3,30.16,WSW,245,0.0,0.0,96,0.00,,---,0.00,VWS V14.01,2013-06-24 07:52:00,
2013-06-24 03:57:00,72.5,71.3,30.16,WSW,245,0.0,0.0,96,0.00,,---,0.00,VWS V14.01,2013-06-24 07:57:00,
2013-06-24 04:00:00,72.5,71.3,30.16,WSW,245,0.0,0.0,96,0.00,,---,0.00,VWS V14.01,2013-06-24 08:00:00,
2013-06-24 04:02:00,72.5,71.3,30.16,WSW,245,0.0,0.0,96,0.00,,---,0.00,VWS V14.01,2013-06-24 08:02:00,
2013-06-24 04:07:00,72.5,71.3,30.16,WSW,245,0.0,1.0,96,0.00,,---,0.00,VWS V14.01,2013-06-24 08:07:00,
2013-06-24 04:12:00,72.5,71.3,30.16,WSW,245,0.0,1.0,96,0.00,,---,0.00,VWS V14.01,2013-06-24 08:12:00,
2013-06-24 04:17:00,72.6,71.4,30.16,WSW,245,0.0,1.0,96,0.00,,---,0.00,VWS V14.01,2013-06-24 08:17:00,
2013-06-24 04:22:00,72.6,71.4,30.16,WSW,245,0.0,1.0,96,0.00,,---,0.00,VWS V14.01,2013-06-24 08:22:00,
2013-06-24 04:27:00,72.6,71.4,30.16,WSW,244,0.0,1.0,96,0.00,,---,0.00,VWS V14.01,2013-06-24 08:27:00,
2013-06-24 04:30:00,72.7,71.5,30.16,WSW,244,0.0,1.0,96,0.00,,---,0.00,VWS V14.01,2013-06-24 08:30:00,
2013-06-24 04:32:00,72.7,71.5,30.16,WSW,245,0.0,0.0,96,0.00,,---,0.00,VWS V14.01,2013-06-24 08:32:00,
2013-06-24 04:38:00,72.6,71.4,30.16,WSW,244,0.0,0.0,96,0.00,,---,0.00,VWS V14.01,2013-06-24 08:38:00,
2013-06-24 04:43:00,72.7,71.5,30.16,WSW,245,0.0,1.0,96,0.00,,---,0.00,VWS V14.01,2013-06-24 08:43:00,
2013-06-24 04:48:00,72.7,71.5,30.16,WSW,246,1.0,1.0,96,0.00,,---,0.00,VWS V14.01,2013-06-24 08:48:00,
2013-06-24 04:53:00,72.8,71.9,30.15,WSW,257,1.0,1.0,97,0.00,,---,0.00,VWS V14.01,2013-06-24 08:53:00,
2013-06-24 04:58:00,72.8,71.6,30.15,WSW,255,0.0,1.0,96,0.00,,---,0.00,VWS V14.01,2013-06-24 08:58:00,
2013-06-24 05:00:00,72.9,71.7,30.16,WSW,256,0.0,1.0,96,0.00,,---,0.00,VWS V14.01,2013-06-24 09:00:00,
2013-06-24 05:03:00,72.9,71.7,30.16,SW,235,1.0,1.0,96,0.00,,---,0.00,VWS V14.01,2013-06-24 09:03:00,
2013-06-24 05:08:00,72.9,71.7,30.15,SW,235,1.0,1.0,96,0.00,,---,0.00,VWS V14.01,2013-06-24 09:08:00,
2013-06-24 05:14:00,72.9,71.7,30.15,SW,236,0.0,1.0,96,0.00,,---,0.00,VWS V14.01,2013-06-24 09:14:00,
2013-06-24 05:19:00,72.9,71.7,30.15,SW,236,0.0,1.0,96,0.00,,---,0.00,VWS V14.01,2013-06-24 09:19:00,
2013-06-24 05:24:00,72.9,72.0,30.15,SW,217,1.0,1.0,97,0.00,,---,0.00,VWS V14.01,2013-06-24 09:24:00,
2013-06-24 05:29:00,72.9,72.0,30.15,WSW,246,0.0,1.0,97,0.00,,---,0.00,VWS V14.01,2013-06-24 09:29:00,
2013-06-24 05:30:00,72.9,72.0,30.15,WSW,246,0.0,1.0,97,0.00,,---,0.00,VWS V14.01,2013-06-24 09:30:00,
2013-06-24 05:34:00,72.9,72.0,30.15,WSW,246,0.0,1.0,97,0.00,,---,0.00,VWS V14.01,2013-06-24 09:34:00,
2013-06-24 05:39:00,72.9,72.0,30.15,WSW,248,1.0,1.0,97,0.00,,---,0.00,VWS V14.01,2013-06-24 09:39:00,
2013-06-24 05:44:00,72.9,72.0,30.15,SW,229,0.0,1.0,97,0.00,,---,0.00,VWS V14.01,2013-06-24 09:44:00,
2013-06-24 05:49:00,73.0,71.8,30.15,SW,229,0.0,1.0,96,0.00,,---,0.00,VWS V14.01,2013-06-24 09:49:00,
2013-06-24 05:54:00,73.0,71.8,30.15,SW,231,0.0,1.0,96,0.00,,---,0.00,VWS V14.01,2013-06-24 09:54:00,
2013-06-24 06:00:00,73.1,71.9,30.15,SSW,205,0.0,1.0,96,0.00,,---,0.00,VWS V14.01,2013-06-24 10:00:00,
2013-06-24 06:05:00,73.1,71.9,30.16,WSW,245,0.0,1.0,96,0.00,,---,0.00,VWS V14.01,2013-06-24 10:05:00,
2013-06-24 06:10:00,73.1,71.9,30.16,WSW,248,1.0,1.0,96,0.00,,---,0.00,VWS V14.01,2013-06-24 10:10:00,
2013-06-24 06:15:00,73.2,72.0,30.16,WSW,246,0.0,1.0,96,0.00,,---,0.00,VWS V14.01,2013-06-24 10:15:00,
2013-06-24 06:20:00,73.2,72.0,30.16,WSW,245,0.0,1.0,96,0.00,,---,0.00,VWS V14.01,2013-06-24 10:20:00,
2013-06-24 06:26:00,73.2,72.0,30.16,WSW,255,0.0,1.0,96,0.00,,---,0.00,VWS V14.01,2013-06-24 10:26:00,
2013-06-24 06:31:00,73.3,72.1,30.16,WSW,254,0.0,1.0,96,0.00,,---,0.00,VWS V14.01,2013-06-24 10:31:00,
2013-06-24 06:36:00,73.3,72.1,30.16,WSW,255,0.0,1.0,96,0.00,,---,0.00,VWS V14.01,2013-06-24 10:36:00,
2013-06-24 06:41:00,73.3,72.1,30.16,WSW,254,0.0,1.0,96,0.00,,---,0.00,VWS V14.01,2013-06-24 10:41:00,
2013-06-24 06:46:00,73.4,72.2,30.16,WSW,252,0.0,1.0,96,0.00,,---,0.00,VWS V14.01,2013-06-24 10:46:00,
2013-06-24 06:51:00,73.4,72.2,30.16,WSW,240,0.0,1.0,96,0.00,,---,0.00,VWS V14.01,2013-06-24 10:51:00,
2013-06-24 06:57:00,73.5,72.3,30.16,WSW,242,0.0,1.0,96,0.00,,---,0.00,VWS V14.01,2013-06-24 10:57:00,
2013-06-24 07:00:00,73.5,72.3,30.16,WNW,302,0.0,1.0,96,0.00,,---,0.00,VWS V14.01,2013-06-24 11:00:00,
2013-06-24 07:02:00,73.5,72.3,30.16,WNW,302,0.0,0.0,96,0.00,,---,0.00,VWS V14.01,2013-06-24 11:02:00,
2013-06-24 07:07:00,73.6,72.4,30.16,WNW,302,0.0,1.0,96,0.00,,---,0.00,VWS V14.01,2013-06-24 11:07:00,
2013-06-24 07:12:00,73.7,72.5,30.15,WNW,302,0.0,1.0,96,0.00,,---,0.00,VWS V14.01,2013-06-24 11:12:00,
2013-06-24 07:17:00,73.8,72.6,30.16,WNW,302,0.0,1.0,96,0.00,,---,0.00,VWS V14.01,2013-06-24 11:17:00,
2013-06-24 07:22:00,73.9,72.7,30.16,WNW,284,0.0,1.0,96,0.00,,---,0.00,VWS V14.01,2013-06-24 11:22:00,
2013-06-24 07:27:00,74.0,72.8,30.16,West,281,0.0,1.0,96,0.00,,---,0.00,VWS V14.01,2013-06-24 11:27:00,
2013-06-24 07:30:00,74.1,72.9,30.16,West,281,1.0,1.0,96,0.00,,---,0.00,VWS V14.01,2013-06-24 11:30:00,
2013-06-24 07:32:00,74.2,72.7,30.16,West,280,0.0,1.0,95,0.00,,---,0.00,VWS V14.01,2013-06-24 11:32:00,
2013-06-24 07:37:00,74.4,72.9,30.16,West,279,0.0,1.0,95,0.00,,---,0.00,VWS V14.01,2013-06-24 11:37:00,
2013-06-24 07:43:00,74.7,72.9,30.16,West,281,0.0,1.0,94,0.00,,---,0.00,VWS V14.01,2013-06-24 11:43:00,
2013-06-24 07:48:00,74.9,73.1,30.16,SW,233,0.0,2.0,94,0.00,,---,0.00,VWS V14.01,2013-06-24 11:48:00,
2013-06-24 07:53:00,75.2,73.0,30.16,North,358,1.0,2.0,93,0.00,,---,0.00,VWS V14.01,2013-06-24 11:53:00,
2013-06-24 07:58:00,75.4,73.2,30.16,North,354,0.0,2.0,93,0.00,,---,0.00,VWS V14.01,2013-06-24 11:58:00,
2013-06-24 08:04:00,75.5,73.0,30.17,SE,145,0.0,2.0,92,0.00,,---,0.00,VWS V14.01,2013-06-24 12:04:00,
2013-06-24 08:09:00,75.6,73.1,30.17,ENE,60,0.0,2.0,92,0.00,,---,0.00,VWS V14.01,2013-06-24 12:09:00,
2013-06-24 08:14:00,75.8,73.3,30.16,ENE,67,0.0,2.0,92,0.00,,---,0.00,VWS V14.01,2013-06-24 12:14:00,
2013-06-24 08:19:00,76.0,73.5,30.16,SSE,155,0.0,2.0,92,0.00,,---,0.00,VWS V14.01,2013-06-24 12:19:00,
2013-06-24 08:24:00,76.2,73.7,30.16,SSE,155,0.0,2.0,92,0.00,,---,0.00,VWS V14.01,2013-06-24 12:24:00,
2013-06-24 08:29:00,76.5,73.7,30.16,SSE,159,0.0,2.0,91,0.00,,---,0.00,VWS V14.01,2013-06-24 12:29:00,
2013-06-24 08:30:00,76.6,73.4,30.16,SSE,161,0.0,2.0,90,0.00,,---,0.00,VWS V14.01,2013-06-24 12:30:00,
2013-06-24 08:34:00,76.7,73.9,30.16,South,177,1.0,3.0,91,0.00,,---,0.00,VWS V14.01,2013-06-24 12:34:00,
2013-06-24 08:40:00,77.0,73.8,30.16,SE,130,0.0,3.0,90,0.00,,---,0.00,VWS V14.01,2013-06-24 12:40:00,
2013-06-24 08:45:00,77.4,73.9,30.16,SE,146,1.0,3.0,89,0.00,,---,0.00,VWS V14.01,2013-06-24 12:45:00,
2013-06-24 08:50:00,77.5,74.0,30.16,WSW,254,1.0,3.0,89,0.00,,---,0.00,VWS V14.01,2013-06-24 12:50:00,
2013-06-24 08:55:00,77.5,74.0,30.17,East,101,0.0,3.0,89,0.00,,---,0.00,VWS V14.01,2013-06-24 12:55:00,
2013-06-24 09:00:00,77.5,73.7,30.16,West,260,1.0,3.0,88,0.00,,---,0.00,VWS V14.01,2013-06-24 13:00:00,
2013-06-24 09:06:00,77.4,73.6,30.16,West,263,1.0,1.0,88,0.00,,---,0.00,VWS V14.01,2013-06-24 13:06:00,
2013-06-24 09:11:00,77.5,73.7,30.17,NE,42,0.0,1.0,88,0.00,,---,0.00,VWS V14.01,2013-06-24 13:11:00,
2013-06-24 09:16:00,77.6,73.8,30.17,SW,217,1.0,2.0,88,0.00,,---,0.00,VWS V14.01,2013-06-24 13:16:00,
2013-06-24 09:21:00,77.7,73.9,30.17,WSW,253,0.0,2.0,88,0.00,,---,0.00,VWS V14.01,2013-06-24 13:21:00,
2013-06-24 09:26:00,77.9,73.7,30.17,West,269,0.0,2.0,87,0.00,,---,0.00,VWS V14.01,2013-06-24 13:26:00,
2013-06-24 09:30:00,78.2,74.4,30.17,SE,142,1.0,2.0,88,0.00,,---,0.00,VWS V14.01,2013-06-24 13:30:00,
2013-06-24 09:32:00,78.2,74.4,30.17,SE,131,2.0,2.0,88,0.00,,---,0.00,VWS V14.01,2013-06-24 13:32:00,
2013-06-24 09:37:00,78.5,74.3,30.17,SSE,149,1.0,2.0,87,0.00,,---,0.00,VWS V14.01,2013-06-24 13:37:00,
2013-06-24 09:42:00,78.7,74.2,30.17,West,281,1.0,2.0,86,0.00,,---,0.00,VWS V14.01,2013-06-24 13:42:00,
2013-06-24 09:47:00,78.8,74.3,30.17,West,260,1.0,2.0,86,0.00,,---,0.00,VWS V14.01,2013-06-24 13:47:00,
2013-06-24 09:52:00,78.9,74.4,30.17,WSW,257,1.0,2.0,86,0.00,,---,0.00,VWS V14.01,2013-06-24 13:52:00,
2013-06-24 09:57:00,79.0,74.5,30.17,WSW,253,1.0,2.0,86,0.00,,---,0.00,VWS V14.01,2013-06-24 13:57:00,
2013-06-24 10:00:00,79.2,74.3,30.17,ESE,113,0.0,2.0,85,0.00,,---,0.00,VWS V14.01,2013-06-24 14:00:00,
2013-06-24 10:02:00,79.3,74.4,30.17,ESE,108,0.0,1.0,85,0.00,,---,0.00,VWS V14.01,2013-06-24 14:02:00,
2013-06-24 10:08:00,79.6,74.3,30.17,SE,139,1.0,2.0,84,0.00,,---,0.00,VWS V14.01,2013-06-24 14:08:00,
2013-06-24 10:13:00,79.9,74.3,30.18,SW,232,0.0,2.0,83,0.00,,---,0.00,VWS V14.01,2013-06-24 14:13:00,
2013-06-24 10:18:00,80.4,74.8,30.18,SW,232,0.0,2.0,83,0.00,,---,0.00,VWS V14.01,2013-06-24 14:18:00,
2013-06-24 10:23:00,80.7,75.1,30.18,SW,226,1.0,2.0,83,0.00,,---,0.00,VWS V14.01,2013-06-24 14:23:00,
2013-06-24 10:28:00,80.8,74.8,30.18,SE,135,0.0,2.0,82,0.00,,---,0.00,VWS V14.01,2013-06-24 14:28:00,
2013-06-24 10:30:00,81.0,75.0,30.17,ENE,76,0.0,2.0,82,0.00,,---,0.00,VWS V14.01,2013-06-24 14:30:00,
2013-06-24 10:33:00,81.2,74.8,30.17,West,267,0.0,2.0,81,0.00,,---,0.00,VWS V14.01,2013-06-24 14:33:00,
2013-06-24 10:38:00,81.5,74.7,30.18,West,262,0.0,2.0,80,0.00,,---,0.00,VWS V14.01,2013-06-24 14:38:00,
2013-06-24 10:44:00,81.7,74.9,30.18,West,262,0.0,2.0,80,0.00,,---,0.00,VWS V14.01,2013-06-24 14:44:00,
2013-06-24 10:49:00,82.1,74.9,30.17,ENE,75,0.0,2.0,79,0.00,,---,0.00,VWS V14.01,2013-06-24 14:49:00,
2013-06-24 10:54:00,82.3,75.5,30.17,SW,217,1.0,2.0,80,0.00,,---,0.00,VWS V14.01,2013-06-24 14:54:00,
2013-06-24 10:59:00,83.2,75.2,30.17,SSW,212,0.0,2.0,77,0.00,,---,0.00,VWS V14.01,2013-06-24 14:59:00,
2013-06-24 11:04:00,83.9,75.5,30.17,ESE,120,1.0,2.0,76,0.00,,---,0.00,VWS V14.01,2013-06-24 15:04:00,
2013-06-24 11:09:00,83.6,74.4,30.17,SSW,207,2.0,2.0,74,0.00,,---,0.00,VWS V14.01,2013-06-24 15:09:00,
2013-06-24 11:14:00,83.5,74.8,30.17,West,278,0.0,2.0,75,0.00,,---,0.00,VWS V14.01,2013-06-24 15:14:00,
2013-06-24 11:19:00,83.9,74.7,30.17,West,269,1.0,2.0,74,0.00,,---,0.00,VWS V14.01,2013-06-24 15:19:00,
2013-06-24 11:24:00,84.2,74.6,30.17,SSW,205,0.0,2.0,73,0.00,,---,0.00,VWS V14.01,2013-06-24 15:24:00,
2013-06-24 11:29:00,84.5,76.1,30.17,West,273,1.0,2.0,76,0.00,,---,0.00,VWS V14.01,2013-06-24 15:29:00,
2013-06-24 11:30:00,84.6,75.4,30.17,WSW,255,0.0,2.0,74,0.00,,---,0.00,VWS V14.01,2013-06-24 15:30:00,
2013-06-24 11:34:00,85.1,75.9,30.17,WSW,257,0.0,0.0,74,0.00,,---,0.00,VWS V14.01,2013-06-24 15:34:00,
2013-06-24 11:40:00,84.8,75.2,30.17,ENE,72,1.0,1.0,73,0.00,,---,0.00,VWS V14.01,2013-06-24 15:40:00,
2013-06-24 11:45:00,84.2,75.4,30.17,NW,312,0.0,2.0,75,0.00,,---,0.00,VWS V14.01,2013-06-24 15:45:00,
2013-06-24 11:50:00,84.0,75.6,30.17,NW,312,0.0,2.0,76,0.00,,---,0.00,VWS V14.01,2013-06-24 15:50:00,
2013-06-24 11:56:00,83.3,75.7,30.17,SSE,158,0.0,2.0,78,0.00,,---,0.00,VWS V14.01,2013-06-24 15:56:00,
2013-06-24 12:00:00,82.9,75.3,30.17,SSE,158,0.0,2.0,78,0.00,,---,0.00,VWS V14.01,2013-06-24 16:00:00,
2013-06-24 12:01:00,82.9,75.3,30.17,SSE,158,0.0,0.0,78,0.00,,---,0.00,VWS V14.01,2013-06-24 16:01:00,
2013-06-24 12:06:00,82.6,75.1,30.17,SSE,158,0.0,0.0,78,0.00,,---,0.00,VWS V14.01,2013-06-24 16:06:00,
2013-06-24 12:11:00,82.4,75.6,30.17,SSE,158,0.0,0.0,80,0.00,,---,0.00,VWS V14.01,2013-06-24 16:11:00,
2013-06-24 12:16:00,82.9,75.7,30.16,SW,219,1.0,1.0,79,0.00,,---,0.00,VWS V14.01,2013-06-24 16:16:00,
2013-06-24 12:22:00,83.6,74.8,30.16,ESE,113,1.0,2.0,75,0.00,,---,0.00,VWS V14.01,2013-06-24 16:22:00,
2013-06-24 12:27:00,84.1,75.3,30.16,WSW,250,1.0,2.0,75,0.00,,---,0.00,VWS V14.01,2013-06-24 16:27:00,
2013-06-24 12:30:00,84.4,74.8,30.16,SE,135,0.0,2.0,73,0.00,,---,0.00,VWS V14.01,2013-06-24 16:30:00,
2013-06-24 12:32:00,84.4,75.2,30.16,SE,145,1.0,1.0,74,0.00,,---,0.00,VWS V14.01,2013-06-24 16:32:00,
2013-06-24 12:37:00,85.3,76.1,30.16,West,273,1.0,1.0,74,0.00,,---,0.00,VWS V14.01,2013-06-24 16:37:00,
2013-06-24 12:42:00,86.3,75.8,30.16,SE,131,1.0,2.0,71,0.00,,---,0.00,VWS V14.01,2013-06-24 16:42:00,
2013-06-24 12:47:00,86.8,76.3,30.16,West,278,1.0,2.0,71,0.00,,---,0.00,VWS V14.01,2013-06-24 16:47:00,
2013-06-24 12:52:00,86.8,75.8,30.16,WSW,256,0.0,2.0,70,0.00,,---,0.00,VWS V14.01,2013-06-24 16:52:00,
2013-06-24 12:58:00,86.4,75.5,30.16,SW,229,1.0,2.0,70,0.00,,---,0.00,VWS V14.01,2013-06-24 16:58:00,
2013-06-24 13:00:00,85.9,75.0,30.15,WSW,250,1.0,2.0,70,0.00,,---,0.00,VWS V14.01,2013-06-24 17:00:00,
2013-06-24 13:03:00,85.7,75.2,30.15,West,270,1.0,2.0,71,0.00,,---,0.00,VWS V14.01,2013-06-24 17:03:00,
2013-06-24 13:08:00,85.6,76.0,30.15,SSE,160,1.0,2.0,73,0.00,,---,0.00,VWS V14.01,2013-06-24 17:08:00,
2013-06-24 13:13:00,86.5,76.0,30.15,ESE,115,1.0,2.0,71,0.00,,---,0.00,VWS V14.01,2013-06-24 17:13:00,
2013-06-24 13:18:00,87.3,75.9,30.14,SE,136,1.0,2.0,69,0.00,,---,0.00,VWS V14.01,2013-06-24 17:18:00,
2013-06-24 13:23:00,87.5,76.1,30.14,SSE,155,0.0,2.0,69,0.00,,---,0.00,VWS V14.01,2013-06-24 17:23:00,
2013-06-24 13:29:00,88.1,76.2,30.14,South,177,1.0,3.0,68,0.00,,---,0.00,VWS V14.01,2013-06-24 17:29:00,
2013-06-24 13:34:00,88.0,75.7,30.13,West,259,1.0,2.0,67,0.00,,---,0.00,VWS V14.01,2013-06-24 17:34:00,
2013-06-24 13:39:00,88.5,76.2,30.13,WNW,297,0.0,2.0,67,0.00,,---,0.00,VWS V14.01,2013-06-24 17:39:00,
2013-06-24 13:44:00,88.4,76.5,30.13,WNW,295,1.0,2.0,68,0.00,,---,0.00,VWS V14.01,2013-06-24 17:44:00,
2013-06-24 13:50:00,87.4,76.0,30.13,ESE,103,1.0,3.0,69,0.00,,---,0.00,VWS V14.01,2013-06-24 17:50:00,
2013-06-24 13:55:00,87.9,76.5,30.12,East,96,1.0,3.0,69,0.00,,---,0.00,VWS V14.01,2013-06-24 17:55:00,
2013-06-24 14:00:00,88.1,76.2,30.12,East,94,1.0,3.0,68,0.00,,---,0.00,VWS V14.01,2013-06-24 18:00:00,
2013-06-24 14:05:00,88.0,75.7,30.12,ESE,115,1.0,2.0,67,0.00,,---,0.00,VWS V14.01,2013-06-24 18:05:00,
2013-06-24 14:11:00,88.4,76.5,30.12,ESE,113,1.0,2.0,68,0.00,,---,0.00,VWS V14.01,2013-06-24 18:11:00,
2013-06-24 14:16:00,88.2,76.3,30.12,ESE,103,0.0,3.0,68,0.00,,---,0.00,VWS V14.01,2013-06-24 18:16:00,
2013-06-24 14:21:00,87.3,76.8,30.12,SE,131,1.0,3.0,71,0.00,,---,0.00,VWS V14.01,2013-06-24 18:21:00,
2013-06-24 14:26:00,86.7,77.0,30.12,East,99,1.0,3.0,73,0.00,,---,0.00,VWS V14.01,2013-06-24 18:26:00,
2013-06-24 14:30:00,86.3,76.2,30.12,NE,34,0.0,4.0,72,0.00,,---,0.00,VWS V14.01,2013-06-24 18:30:00,
2013-06-24 14:31:00,86.1,76.0,30.11,NE,34,0.0,0.0,72,0.00,,---,0.00,VWS V14.01,2013-06-24 18:31:00,
2013-06-24 14:36:00,84.7,75.5,30.11,ENE,71,1.0,2.0,74,0.00,,---,0.00,VWS V14.01,2013-06-24 18:36:00,
2013-06-24 14:42:00,84.0,75.6,30.11,SE,131,1.0,2.0,76,0.00,,---,0.00,VWS V14.01,2013-06-24 18:42:00,
2013-06-24 14:47:00,83.8,75.0,30.11,ESE,113,0.0,2.0,75,0.00,,---,0.00,VWS V14.01,2013-06-24 18:47:00,
2013-06-24 14:52:00,83.9,75.5,30.11,SSW,211,1.0,2.0,76,0.00,,---,0.00,VWS V14.01,2013-06-24 18:52:00,
2013-06-24 14:57:00,84.0,75.6,30.10,WSW,243,0.0,2.0,76,0.00,,---,0.00,VWS V14.01,2013-06-24 18:57:00,
2013-06-24 15:00:00,83.9,75.9,30.10,ESE,102,0.0,2.0,77,0.00,,---,0.00,VWS V14.01,2013-06-24 19:00:00,
2013-06-24 15:02:00,83.8,75.8,30.10,ESE,102,0.0,0.0,77,0.00,,---,0.00,VWS V14.01,2013-06-24 19:02:00,
2013-06-24 15:07:00,83.7,76.1,30.09,SW,232,1.0,1.0,78,0.00,,---,0.00,VWS V14.01,2013-06-24 19:07:00,
2013-06-24 15:13:00,84.2,76.2,30.08,SE,139,1.0,1.0,77,0.00,,---,0.00,VWS V14.01,2013-06-24 19:13:00,
2013-06-24 15:18:00,84.8,76.4,30.08,SE,143,1.0,3.0,76,0.00,,---,0.00,VWS V14.01,2013-06-24 19:18:00,
2013-06-24 15:23:00,85.2,76.8,30.08,SSE,160,0.0,3.0,76,0.00,,---,0.00,VWS V14.01,2013-06-24 19:23:00,
2013-06-24 15:28:00,85.6,76.8,30.08,SSE,166,2.0,3.0,75,0.00,,---,0.00,VWS V14.01,2013-06-24 19:28:00,
2013-06-24 15:30:00,85.8,77.0,30.08,ENE,73,0.0,3.0,75,0.00,,---,0.00,VWS V14.01,2013-06-24 19:30:00,
2013-06-24 15:33:00,86.0,77.2,30.07,West,263,1.0,1.0,75,0.00,,---,0.00,VWS V14.01,2013-06-24 19:33:00,
2013-06-24 15:38:00,86.1,76.4,30.08,West,276,0.0,2.0,73,0.00,,---,0.00,VWS V14.01,2013-06-24 19:38:00,
2013-06-24 15:43:00,86.4,77.1,30.08,ESE,121,0.0,2.0,74,0.00,,---,0.00,VWS V14.01,2013-06-24 19:43:00,
2013-06-24 15:48:00,86.4,77.5,30.08,WNW,294,1.0,3.0,75,0.00,,---,0.00,VWS V14.01,2013-06-24 19:48:00,
2013-06-24 15:54:00,86.1,75.6,30.08,SW,225,1.0,3.0,71,0.00,,---,0.00,VWS V14.01,2013-06-24 19:54:00,
2013-06-24 15:59:00,86.0,75.5,30.09,West,273,1.0,3.0,71,0.00,,---,0.00,VWS V14.01,2013-06-24 19:59:00,
2013-06-24 16:00:00,86.0,75.1,30.09,SW,224,0.0,3.0,70,0.00,,---,0.00,VWS V14.01,2013-06-24 20:00:00,
2013-06-24 16:04:00,85.9,75.0,30.09,ESE,120,1.0,2.0,70,0.00,,---,0.00,VWS V14.01,2013-06-24 20:04:00,
2013-06-24 16:09:00,85.6,74.7,30.09,SSE,152,1.0,2.0,70,0.00,,---,0.00,VWS V14.01,2013-06-24 20:09:00,
2013-06-24 16:14:00,85.5,74.6,30.09,SSW,203,1.0,2.0,70,0.00,,---,0.00,VWS V14.01,2013-06-24 20:14:00,
2013-06-24 16:19:00,85.3,74.4,30.09,SE,134,1.0,4.0,70,0.00,,---,0.00,VWS V14.01,2013-06-24 20:19:00,
2013-06-24 16:25:00,85.0,74.6,30.09,SSW,207,1.0,4.0,71,0.00,,---,0.00,VWS V14.01,2013-06-24 20:25:00,
2013-06-24 16:30:00,85.0,75.0,30.09,SW,217,1.0,4.0,72,0.00,,---,0.00,VWS V14.01,2013-06-24 20:30:00,
2013-06-24 16:35:00,85.0,75.4,30.09,East,85,1.0,3.0,73,0.00,,---,0.00,VWS V14.01,2013-06-24 20:35:00,
2013-06-24 16:41:00,85.0,75.4,30.08,SSW,210,2.0,3.0,73,0.00,,---,0.00,VWS V14.01,2013-06-24 20:41:00,
2013-06-24 16:46:00,84.8,74.8,30.08,SE,145,3.0,4.0,72,0.00,,---,0.00,VWS V14.01,2013-06-24 20:46:00,
2013-06-24 16:51:00,84.8,75.2,30.08,SE,140,2.0,4.0,73,0.00,,---,0.00,VWS V14.01,2013-06-24 20:51:00,
2013-06-24 16:56:00,84.5,74.9,30.08,SW,222,1.0,4.0,73,0.00,,---,0.00,VWS V14.01,2013-06-24 20:56:00,
2013-06-24 17:00:00,84.4,75.6,30.08,WSW,253,1.0,4.0,75,0.00,,---,0.00,VWS V14.01,2013-06-24 21:00:00,
2013-06-24 17:02:00,84.4,75.6,30.08,WNW,287,2.0,2.0,75,0.00,,---,0.00,VWS V14.01,2013-06-24 21:02:00,
2013-06-24 17:07:00,84.1,74.9,30.07,South,191,0.0,3.0,74,0.00,,---,0.00,VWS V14.01,2013-06-24 21:07:00,
2013-06-24 17:12:00,84.0,75.2,30.07,SW,217,1.0,3.0,75,0.00,,---,0.00,VWS V14.01,2013-06-24 21:12:00,
2013-06-24 17:17:00,83.8,74.6,30.07,SW,217,0.0,3.0,74,0.00,,---,0.00,VWS V14.01,2013-06-24 21:17:00,
2013-06-24 17:22:00,83.7,74.5,30.07,WSW,238,1.0,3.0,74,0.00,,---,0.00,VWS V14.01,2013-06-24 21:22:00,
2013-06-24 17:27:00,83.6,74.4,30.07,SSW,204,3.0,4.0,74,0.00,,---,0.00,VWS V14.01,2013-06-24 21:27:00,
2013-06-24 17:30:00,83.4,74.2,30.07,SSW,195,1.0,4.0,74,0.00,,---,0.00,VWS V14.01,2013-06-24 21:30:00,
2013-06-24 17:32:00,83.3,74.6,30.07,ESE,107,1.0,4.0,75,0.00,,---,0.00,VWS V14.01,2013-06-24 21:32:00,
2013-06-24 17:38:00,83.2,74.8,30.07,SE,142,1.0,4.0,76,0.00,,---,0.00,VWS V14.01,2013-06-24 21:38:00,
2013-06-24 17:43:00,82.9,74.6,30.06,SSE,152,2.0,4.0,76,0.00,,---,0.00,VWS V14.01,2013-06-24 21:43:00,
2013-06-24 17:48:00,82.7,74.4,30.06,South,183,2.0,4.0,76,0.00,,---,0.00,VWS V14.01,2013-06-24 21:48:00,
2013-06-24 18:00:00,82.6,74.7,30.06,SW,231,2.0,2.0,77,0.00,,---,0.00,VWS V14.01,2013-06-24 22:00:00,
2013-06-24 18:06:00,82.5,74.6,30.06,SW,232,0.0,2.0,77,0.00,,---,0.00,VWS V14.01,2013-06-24 22:06:00,
2013-06-24 18:11:00,82.4,74.5,30.06,ESE,106,3.0,4.0,77,0.00,,---,0.00,VWS V14.01,2013-06-24 22:11:00,
2013-06-24 18:16:00,82.2,74.3,30.06,NW,304,1.0,4.0,77,0.00,,---,0.00,VWS V14.01,2013-06-24 22:16:00,
2013-06-24 18:21:00,82.2,74.3,30.06,West,281,0.0,4.0,77,0.00,,---,0.00,VWS V14.01,2013-06-24 22:21:00,
2013-06-24 18:26:00,82.2,74.7,30.06,West,277,0.0,4.0,78,0.00,,---,0.00,VWS V14.01,2013-06-24 22:26:00,
2013-06-24 18:31:00,82.1,74.9,30.06,SSW,198,1.0,1.0,79,0.00,,---,0.00,VWS V14.01,2013-06-24 22:31:00,
2013-06-24 18:36:00,81.9,74.8,30.06,WSW,245,0.0,2.0,79,0.00,,---,0.00,VWS V14.01,2013-06-24 22:36:00,
2013-06-24 18:41:00,81.8,74.7,30.06,West,270,2.0,2.0,79,0.00,,---,0.00,VWS V14.01,2013-06-24 22:41:00,
2013-06-24 18:46:00,81.6,74.8,30.07,West,271,0.0,2.0,80,0.00,,---,0.00,VWS V14.01,2013-06-24 22:46:00,
2013-06-24 18:51:00,81.5,74.7,30.06,SW,217,0.0,2.0,80,0.00,,---,0.00,VWS V14.01,2013-06-24 22:51:00,
2013-06-24 18:57:00,81.5,74.7,30.07,SW,215,0.0,2.0,80,0.00,,---,0.00,VWS V14.01,2013-06-24 22:57:00,
2013-06-24 19:02:00,81.4,74.6,30.07,West,269,2.0,2.0,80,0.00,,---,0.00,VWS V14.01,2013-06-24 23:02:00,
2013-06-24 19:07:00,81.1,74.0,30.07,South,169,0.0,2.0,79,0.00,,---,0.00,VWS V14.01,2013-06-24 23:07:00,
2013-06-24 19:12:00,81.0,74.2,30.07,WSW,257,1.0,2.0,80,0.00,,---,0.00,VWS V14.01,2013-06-24 23:12:00,
2013-06-24 19:17:00,80.9,74.2,30.07,West,262,1.0,2.0,80,0.00,,---,0.00,VWS V14.01,2013-06-24 23:17:00,
2013-06-24 19:22:00,80.8,74.1,30.07,SW,215,1.0,2.0,80,0.00,,---,0.00,VWS V14.01,2013-06-24 23:22:00,
2013-06-24 19:27:00,80.7,73.6,30.07,WSW,238,1.0,2.0,79,0.00,,---,0.00,VWS V14.01,2013-06-24 23:27:00,
2013-06-24 19:33:00,80.6,73.9,30.07,West,278,0.0,1.0,80,0.00,,---,0.00,VWS V14.01,2013-06-24 23:33:00,
2013-06-24 19:38:00,80.4,73.3,30.07,NE,39,0.0,2.0,79,0.00,,---,0.00,VWS V14.01,2013-06-24 23:38:00,
2013-06-24 19:43:00,80.3,73.6,30.07,NNE,25,1.0,2.0,80,0.00,,---,0.00,VWS V14.01,2013-06-24 23:43:00,
2013-06-24 19:48:00,80.1,73.4,30.08,WSW,254,0.0,2.0,80,0.00,,---,0.00,VWS V14.01,2013-06-24 23:48:00,
2013-06-24 19:53:00,80.0,73.3,30.07,SSW,205,0.0,2.0,80,0.00,,---,0.00,VWS V14.01,2013-06-24 23:53:00,
2013-06-24 19:58:00,79.8,73.4,30.07,SW,218,0.0,2.0,81,0.00,,---,0.00,VWS V14.01,2013-06-24 23:58:00,
2013-06-24 20:03:00,79.7,73.4,30.07,WSW,249,1.0,1.0,81,0.00,,---,0.00,VWS V14.01,2013-06-25 00:03:00,
2013-06-24 20:08:00,79.5,73.2,30.07,NE,45,1.0,1.0,81,0.00,,---,0.00,VWS V14.01,2013-06-25 00:08:00,
2013-06-24 20:13:00,79.3,73.3,30.07,West,269,0.0,1.0,82,0.00,,---,0.00,VWS V14.01,2013-06-25 00:13:00,
2013-06-24 20:18:00,79.1,73.1,30.06,NE,44,1.0,1.0,82,0.00,,---,0.00,VWS V14.01,2013-06-25 00:18:00,
2013-06-24 20:24:00,79.0,73.0,30.06,SW,218,0.0,2.0,82,0.00,,---,0.00,VWS V14.01,2013-06-25 00:24:00,
2013-06-24 20:29:00,78.8,73.2,30.06,WSW,253,0.0,2.0,83,0.00,,---,0.00,VWS V14.01,2013-06-25 00:29:00,
2013-06-24 20:34:00,78.7,73.1,30.07,West,270,1.0,2.0,83,0.00,,---,0.00,VWS V14.01,2013-06-25 00:34:00,
2013-06-24 20:39:00,78.5,72.9,30.07,SW,231,0.0,2.0,83,0.00,,---,0.00,VWS V14.01,2013-06-25 00:39:00,
2013-06-24 20:44:00,78.3,73.1,30.08,SSW,211,0.0,2.0,84,0.00,,---,0.00,VWS V14.01,2013-06-25 00:44:00,
2013-06-24 20:49:00,78.2,73.0,30.08,SSW,212,0.0,2.0,84,0.00,,---,0.00,VWS V14.01,2013-06-25 00:49:00,
2013-06-24 20:54:00,78.1,72.9,30.08,SW,214,0.0,2.0,84,0.00,,---,0.00,VWS V14.01,2013-06-25 00:54:00,
2013-06-24 20:59:00,77.9,72.7,30.08,SW,214,0.0,2.0,84,0.00,,---,0.00,VWS V14.01,2013-06-25 00:59:00,
2013-06-24 21:04:00,77.8,72.9,30.08,SSW,212,0.0,1.0,85,0.00,,---,0.00,VWS V14.01,2013-06-25 01:04:00,
2013-06-24 21:10:00,77.6,72.7,30.08,SW,217,0.0,1.0,85,0.00,,---,0.00,VWS V14.01,2013-06-25 01:10:00,
2013-06-24 21:15:00,77.6,72.7,30.08,SSW,193,0.0,1.0,85,0.00,,---,0.00,VWS V14.01,2013-06-25 01:15:00,
2013-06-24 21:20:00,77.4,72.9,30.08,SSW,193,0.0,1.0,86,0.00,,---,0.00,VWS V14.01,2013-06-25 01:20:00,
2013-06-24 21:25:00,77.2,72.7,30.08,SSW,212,0.0,1.0,86,0.00,,---,0.00,VWS V14.01,2013-06-25 01:25:00,
2013-06-24 21:30:00,77.2,72.7,30.08,SW,215,0.0,1.0,86,0.00,,---,0.00,VWS V14.01,2013-06-25 01:30:00,
2013-06-24 21:36:00,77.2,72.7,30.08,SW,214,0.0,2.0,86,0.00,,---,0.00,VWS V14.01,2013-06-25 01:36:00,
2013-06-24 21:41:00,77.1,72.6,30.08,SW,222,1.0,2.0,86,0.00,,---,0.00,VWS V14.01,2013-06-25 01:41:00,
2013-06-24 21:46:00,77.1,72.6,30.08,SW,221,0.0,2.0,86,0.00,,---,0.00,VWS V14.01,2013-06-25 01:46:00,
2013-06-24 21:51:00,77.0,72.5,30.08,SW,221,0.0,2.0,86,0.00,,---,0.00,VWS V14.01,2013-06-25 01:51:00,
2013-06-24 21:56:00,77.0,72.5,30.08,SW,221,0.0,2.0,86,0.00,,---,0.00,VWS V14.01,2013-06-25 01:56:00,
2013-06-24 22:01:00,76.8,72.3,30.09,SW,221,0.0,0.0,86,0.00,,---,0.00,VWS V14.01,2013-06-25 02:01:00,
2013-06-24 22:07:00,76.7,72.5,30.09,SW,221,1.0,1.0,87,0.00,,---,0.00,VWS V14.01,2013-06-25 02:07:00,
2013-06-24 22:12:00,76.5,72.3,30.09,SW,221,0.0,1.0,87,0.00,,---,0.00,VWS V14.01,2013-06-25 02:12:00,
2013-06-24 22:17:00,76.4,72.2,30.09,SW,221,1.0,1.0,87,0.00,,---,0.00,VWS V14.01,2013-06-25 02:17:00,
2013-06-24 22:22:00,76.3,72.2,30.09,SW,220,0.0,1.0,87,0.00,,---,0.00,VWS V14.01,2013-06-25 02:22:00,
2013-06-24 22:27:00,76.2,72.4,30.09,SW,221,0.0,1.0,88,0.00,,---,0.00,VWS V14.01,2013-06-25 02:27:00,
2013-06-24 22:32:00,76.1,72.3,30.09,SW,221,0.0,0.0,88,0.00,,---,0.00,VWS V14.01,2013-06-25 02:32:00,
2013-06-24 22:37:00,76.0,72.2,30.09,SW,221,0.0,1.0,88,0.00,,---,0.00,VWS V14.01,2013-06-25 02:37:00,
2013-06-24 22:42:00,75.8,72.0,30.10,SW,221,0.0,1.0,88,0.00,,---,0.00,VWS V14.01,2013-06-25 02:42:00,
2013-06-24 22:47:00,75.8,72.0,30.09,SW,221,0.0,1.0,88,0.00,,---,0.00,VWS V14.01,2013-06-25 02:47:00,
2013-06-24 22:53:00,75.7,71.9,30.09,SW,221,0.0,1.0,88,0.00,,---,0.00,VWS V14.01,2013-06-25 02:53:00,
2013-06-24 22:58:00,75.6,71.8,30.10,SW,220,0.0,1.0,88,0.00,,---,0.00,VWS V14.01,2013-06-25 02:58:00,
2013-06-24 23:03:00,75.5,72.0,30.10,SW,221,0.0,1.0,89,0.00,,---,0.00,VWS V14.01,2013-06-25 03:03:00,
2013-06-24 23:08:00,75.5,72.0,30.10,SW,221,0.0,1.0,89,0.00,,---,0.00,VWS V14.01,2013-06-25 03:08:00,
2013-06-24 23:13:00,75.4,71.9,30.10,SW,221,0.0,1.0,89,0.00,,---,0.00,VWS V14.01,2013-06-25 03:13:00,
2013-06-24 23:19:00,75.3,71.8,30.10,SW,221,0.0,1.0,89,0.00,,---,0.00,VWS V14.01,2013-06-25 03:19:00,
2013-06-24 23:24:00,75.2,71.7,30.10,SW,221,0.0,1.0,89,0.00,,---,0.00,VWS V14.01,2013-06-25 03:24:00,
2013-06-24 23:29:00,75.1,72.0,30.11,SW,221,0.0,1.0,90,0.00,,---,0.00,VWS V14.01,2013-06-25 03:29:00,
2013-06-24 23:34:00,75.0,71.9,30.11,SW,220,0.0,0.0,90,0.00,,---,0.00,VWS V14.01,2013-06-25 03:34:00,
2013-06-24 23:39:00,74.8,71.7,30.11,SW,221,0.0,0.0,90,0.00,,---,0.00,VWS V14.01,2013-06-25 03:39:00,
2013-06-24 23:44:00,74.7,71.9,30.11,SW,221,0.0,0.0,91,0.00,,---,0.00,VWS V14.01,2013-06-25 03:44:00,
2013-06-24 23:50:00,74.6,71.8,30.11,SW,221,0.0,0.0,91,0.00,,---,0.00,VWS V14.01,2013-06-25 03:50:00,
2013-06-24 23:55:00,74.6,71.8,30.11,SW,224,2.0,2.0,91,0.00,,---,0.00,VWS V14.01,2013-06-25 03:55:00,